Regional Weather Roundup
Issued by NWS

Home | Current Version | Previous Version | Text Only | Print | Product List | Glossary Off
Versions: 1 2 3 4 5 6 7 8 9 10 11 12 13 14 15 16 17 18 19 20 21 22 23 24 25 26 27 28 29 30 31 32 33 34 35 36 37 38 39 40 41 42 43 44 45 46 47 48 49 50

000
ASUS43 KBIS 241431
RWRND
NORTH DAKOTA REGIONAL WEATHER ROUNDUP
NATIONAL WEATHER SERVICE EASTERN NORTH DAKOTA/GRAND FORKS ND
800 AM CST SAT FEB 24 2018

  NOTE: "FAIR" INDICATES FEW OR NO CLOUDS BELOW 12,000 FEET WITH NO
  SIGNIFICANT WEATHER AND/OR OBSTRUCTIONS TO VISIBILITY.

NDZ001>003-009>011-017-241500-
...NORTHWEST NORTH DAKOTA...

CITY           SKY/WX    TMP DP  RH WIND       PRES   REMARKS
WILLISTON      FAIR      -4  -7  87 CALM      29.77F
MINOT          FAIR       9   0  67 S14       29.79F WCI  -7
MINOT AFB      FAIR       6  -2  69 S9          N/A  WCI  -8
$$

NDZ018>021-031>035-040>046-241500-
...SOUTHWEST NORTH DAKOTA...

CITY           SKY/WX    TMP DP  RH WIND       PRES   REMARKS
BISMARCK       CLOUDY     6   2  83 SE3       29.89F
DICKINSON      LGT SNOW  11   6  81 S13       29.74S WCI  -4
GARRISON         N/A      0  -5  79 SE6       29.82F WCI -12
HETTINGER      LGT SNOW   8   4  83 S5        29.78F FOG     WCI   0
$$

NDZ004>008-012>016-024-026-027-054-241500-
...NORTHEAST NORTH DAKOTA...

CITY           SKY/WX    TMP DP  RH WIND       PRES   REMARKS
GRAND FORKS    FAIR      -1  -5  82 S10       30.03R WCI -17
GRAND FORKS AF FAIR       1  -5  76 S10       30.00S WCI -15
DEVILS LAKE    FAIR       1  -4  79 SE9       29.91S WCI -14
$$

NDZ022-023-025-028>030-036>039-047>053-241500-
...SOUTHEAST NORTH DAKOTA...

CITY           SKY/WX    TMP DP  RH WIND       PRES   REMARKS
JAMESTOWN      FAIR      -3  -6  87 S10       29.95F WCI -20
FARGO          MOCLDY     1  -2  87 S10       30.07F FOG     WCI -15
WAHPETON       FAIR      -4  -8  84 E3        30.09F
$$




USA.gov is the U.S. government's official web portal to all federal, state and local government web resources and services.